sat.trackr.live / text

‹ back to catalog

ONEWEB-0133

NORAD 47279 · 2020-100X

PAYLOAD ACTIVE UNKNOWN

§ Identity

Operator
Country
UK
Launch date
2020-12-18
Launch site
VOSTO
Launch vehicle
Mass (kg)
RCS (m²)

Purposes: comms

External: N2YO · Heavens-Above · Gunter

§ Orbital elements

Epoch: 2026-05-25T03:10:24.499200Z

Period
109.72 min
Inclination
87.8964°
Eccentricity
0.0001739
Mean motion
13.12441607 rev/d
Perigee alt
1,212.4 km
Apogee alt
1,215.0 km
Semi-major
7,591.9 km
B*
-2.8733e-4
RAAN
355.2321°
Arg perigee
80.5295°
Mean anomaly
279.6030°
Rev number
26,171

§ Raw data

ONEWEB-01331 47279U 20100X   26145.13222800 -.00000091  00000+0 -28733-3 0  99952 47279  87.8964 355.2321 0001739  80.5295 279.6030 13.12441607261716

JSON: /api/v1/satellites/47279 · /tle

For live sub-satellite position, see the globe view (requires WebGL).

§ Visibility from observer

Set your observer location to see the next 7 days of passes ≥ 10°. The values pass through the URL so the page stays shareable.

No JS? Fill the form by hand. The geolocation button needs JavaScript.